Year,Month,Day,Hour,Minute,Value (Times are PST for temperature in C)
2019,03,18,00,00,5.20
2019,03,18,00,01,5.20
2019,03,18,00,02,5.20
2019,03,18,00,03,5.10
2019,03,18,00,04,5.10
2019,03,18,00,05,5.10
2019,03,18,00,06,5.10
2019,03,18,00,07,5.10
2019,03,18,00,08,5.10
2019,03,18,00,09,5.10
2019,03,18,00,10,5.10
2019,03,18,00,11,5.10
2019,03,18,00,12,5.10
2019,03,18,00,13,5.10
2019,03,18,00,14,5.10
2019,03,18,00,15,5.10
2019,03,18,00,16,5.00
2019,03,18,00,17,5.00
2019,03,18,00,18,5.00
2019,03,18,00,19,5.00
2019,03,18,00,20,5.00
2019,03,18,00,21,4.90
2019,03,18,00,22,4.90
2019,03,18,00,23,4.90
2019,03,18,00,24,4.90
2019,03,18,00,25,4.90
2019,03,18,00,26,4.90
2019,03,18,00,27,4.90
2019,03,18,00,28,4.90
2019,03,18,00,29,4.90
2019,03,18,00,30,4.80
2019,03,18,00,31,4.80
2019,03,18,00,32,4.80
2019,03,18,00,33,4.80
2019,03,18,00,34,4.80
2019,03,18,00,35,4.80
2019,03,18,00,36,4.80
2019,03,18,00,37,4.80
2019,03,18,00,38,4.80
2019,03,18,00,39,4.80
2019,03,18,00,40,4.80
2019,03,18,00,41,4.80
2019,03,18,00,42,4.80
2019,03,18,00,43,4.80
2019,03,18,00,44,4.80
2019,03,18,00,45,4.80
2019,03,18,00,46,4.70
2019,03,18,00,47,4.70
2019,03,18,00,48,4.70
2019,03,18,00,49,4.70
2019,03,18,00,50,4.70
2019,03,18,00,51,4.70
2019,03,18,00,52,4.70
2019,03,18,00,53,4.60
2019,03,18,00,54,4.60
2019,03,18,00,55,4.60
2019,03,18,00,56,4.60
2019,03,18,00,57,4.60
2019,03,18,00,58,4.50
2019,03,18,00,59,4.50
2019,03,18,01,00,4.50
2019,03,18,01,01,4.50
2019,03,18,01,02,4.50
2019,03,18,01,03,4.50
2019,03,18,01,04,4.50
2019,03,18,01,05,4.50
2019,03,18,01,06,4.50
2019,03,18,01,07,4.50
2019,03,18,01,08,4.50
2019,03,18,01,09,4.50
2019,03,18,01,10,4.50
2019,03,18,01,11,4.50
2019,03,18,01,12,4.50
2019,03,18,01,13,4.50
2019,03,18,01,14,4.50
2019,03,18,01,15,4.50
2019,03,18,01,16,4.50
2019,03,18,01,17,4.50
2019,03,18,01,18,4.50
2019,03,18,01,19,4.50
2019,03,18,01,20,4.50
2019,03,18,01,21,4.50
2019,03,18,01,22,4.50
2019,03,18,01,23,4.50
2019,03,18,01,24,4.50
2019,03,18,01,25,4.50
2019,03,18,01,26,4.50
2019,03,18,01,27,4.50
2019,03,18,01,28,4.50
2019,03,18,01,29,4.50
2019,03,18,01,30,4.50
2019,03,18,01,31,4.50
2019,03,18,01,32,4.50
2019,03,18,01,33,4.40
2019,03,18,01,34,4.40
2019,03,18,01,35,4.40
2019,03,18,01,36,4.40
2019,03,18,01,37,4.40
2019,03,18,01,38,4.40
2019,03,18,01,39,4.40
2019,03,18,01,40,4.40
2019,03,18,01,41,4.40
2019,03,18,01,42,4.40
2019,03,18,01,43,4.40
2019,03,18,01,44,4.30
2019,03,18,01,45,4.30
2019,03,18,01,46,4.30
2019,03,18,01,47,4.30
2019,03,18,01,48,4.30
2019,03,18,01,49,4.30
2019,03,18,01,50,4.30
2019,03,18,01,51,4.30
2019,03,18,01,52,4.30
2019,03,18,01,53,4.30
2019,03,18,01,54,4.30
2019,03,18,01,55,4.30
2019,03,18,01,56,4.20
2019,03,18,01,57,4.20
2019,03,18,01,58,4.20
2019,03,18,01,59,4.20
2019,03,18,02,00,4.20
2019,03,18,02,01,4.20
2019,03,18,02,02,4.20
2019,03,18,02,03,4.10
2019,03,18,02,04,4.10
2019,03,18,02,05,4.10
2019,03,18,02,06,4.10
2019,03,18,02,07,4.10
2019,03,18,02,08,4.10
2019,03,18,02,09,4.10
2019,03,18,02,10,4.10
2019,03,18,02,11,4.00
2019,03,18,02,12,4.00
2019,03,18,02,13,4.00
2019,03,18,02,14,4.00
2019,03,18,02,15,4.00
2019,03,18,02,16,4.00
2019,03,18,02,17,4.00
2019,03,18,02,18,4.00
2019,03,18,02,19,4.00
2019,03,18,02,20,4.00
2019,03,18,02,21,4.00
2019,03,18,02,22,4.00
2019,03,18,02,23,3.90
2019,03,18,02,24,3.90
2019,03,18,02,25,3.90
2019,03,18,02,26,3.90
2019,03,18,02,27,3.90
2019,03,18,02,28,3.90
2019,03,18,02,29,3.90
2019,03,18,02,30,3.80
2019,03,18,02,31,3.80
2019,03,18,02,32,3.80
2019,03,18,02,33,3.90
2019,03,18,02,34,3.80
2019,03,18,02,35,3.90
2019,03,18,02,36,3.90
2019,03,18,02,37,3.90
2019,03,18,02,38,3.80
2019,03,18,02,39,3.90
2019,03,18,02,40,3.80
2019,03,18,02,41,3.80
2019,03,18,02,42,3.80
2019,03,18,02,43,3.80
2019,03,18,02,44,3.80
2019,03,18,02,45,3.80
2019,03,18,02,46,3.80
2019,03,18,02,47,3.80
2019,03,18,02,48,3.80
2019,03,18,02,49,3.80
2019,03,18,02,50,3.80
2019,03,18,02,51,3.80
2019,03,18,02,52,3.80
2019,03,18,02,53,3.80
2019,03,18,02,54,3.80
2019,03,18,02,55,3.80
2019,03,18,02,56,3.80
2019,03,18,02,57,3.80
2019,03,18,02,58,3.80
2019,03,18,02,59,3.80
2019,03,18,03,00,3.80
2019,03,18,03,01,3.80
2019,03,18,03,02,3.80
2019,03,18,03,03,3.70
2019,03,18,03,04,3.70
2019,03,18,03,05,3.70
2019,03,18,03,06,3.70
2019,03,18,03,07,3.70
2019,03,18,03,08,3.70
2019,03,18,03,09,3.60
2019,03,18,03,10,3.60
2019,03,18,03,11,3.60
2019,03,18,03,12,3.60
2019,03,18,03,13,3.60
2019,03,18,03,14,3.50
2019,03,18,03,15,3.50
2019,03,18,03,16,3.50
2019,03,18,03,17,3.50
2019,03,18,03,18,3.40
2019,03,18,03,19,3.40
2019,03,18,03,20,3.40
2019,03,18,03,21,3.40
2019,03,18,03,22,3.40
2019,03,18,03,23,3.30
2019,03,18,03,24,3.30
2019,03,18,03,25,3.30
2019,03,18,03,26,3.30
2019,03,18,03,27,3.30
2019,03,18,03,28,3.30
2019,03,18,03,29,3.30
2019,03,18,03,30,3.30
2019,03,18,03,31,3.30
2019,03,18,03,32,3.30
2019,03,18,03,33,3.30
2019,03,18,03,34,3.30
2019,03,18,03,35,3.30
2019,03,18,03,36,3.30
2019,03,18,03,37,3.20
2019,03,18,03,38,3.20
2019,03,18,03,39,3.20
2019,03,18,03,40,3.20
2019,03,18,03,41,3.20
2019,03,18,03,42,3.20
2019,03,18,03,43,3.20
2019,03,18,03,44,3.20
2019,03,18,03,45,3.20
2019,03,18,03,46,3.20
2019,03,18,03,47,3.20
2019,03,18,03,48,3.20
2019,03,18,03,49,3.20
2019,03,18,03,50,3.20
2019,03,18,03,51,3.20
2019,03,18,03,52,3.20
2019,03,18,03,53,3.20
2019,03,18,03,54,3.20
2019,03,18,03,55,3.20
2019,03,18,03,56,3.20
2019,03,18,03,57,3.20
2019,03,18,03,58,3.20
2019,03,18,03,59,3.20
2019,03,18,04,00,3.10
2019,03,18,04,01,3.10
2019,03,18,04,02,3.10
2019,03,18,04,03,3.10
2019,03,18,04,04,3.10
2019,03,18,04,05,3.10
2019,03,18,04,06,3.00
2019,03,18,04,07,3.00
2019,03,18,04,08,3.00
2019,03,18,04,09,3.00
2019,03,18,04,10,2.90
2019,03,18,04,11,2.90
2019,03,18,04,12,2.90
2019,03,18,04,13,2.90
2019,03,18,04,14,2.90
2019,03,18,04,15,2.90
2019,03,18,04,16,2.90
2019,03,18,04,17,2.90
2019,03,18,04,18,2.90
2019,03,18,04,19,2.90
2019,03,18,04,20,2.90
2019,03,18,04,21,2.90
2019,03,18,04,22,2.90
2019,03,18,04,23,2.90
2019,03,18,04,24,2.90
2019,03,18,04,25,2.90
2019,03,18,04,26,2.90
2019,03,18,04,27,2.90
2019,03,18,04,28,2.90
2019,03,18,04,29,2.90
2019,03,18,04,30,2.90
2019,03,18,04,31,2.90
2019,03,18,04,32,2.90
2019,03,18,04,33,2.90
2019,03,18,04,34,2.90
2019,03,18,04,35,2.90
2019,03,18,04,36,2.90
2019,03,18,04,37,2.90
2019,03,18,04,38,2.90
2019,03,18,04,39,2.90
2019,03,18,04,40,2.90
2019,03,18,04,41,2.90
2019,03,18,04,42,2.80
2019,03,18,04,43,2.80
2019,03,18,04,44,2.80
2019,03,18,04,45,2.80
2019,03,18,04,46,2.80
2019,03,18,04,47,2.80
2019,03,18,04,48,2.80
2019,03,18,04,49,2.80
2019,03,18,04,50,2.80
2019,03,18,04,51,2.80
2019,03,18,04,52,2.80
2019,03,18,04,53,2.80
2019,03,18,04,54,2.80
2019,03,18,04,55,2.80
2019,03,18,04,56,2.80
2019,03,18,04,57,2.80
2019,03,18,04,58,2.80
2019,03,18,04,59,2.80
2019,03,18,05,00,2.80
2019,03,18,05,01,2.80
2019,03,18,05,02,2.80
2019,03,18,05,03,2.70
2019,03,18,05,04,2.70
2019,03,18,05,05,2.70
2019,03,18,05,06,2.70
2019,03,18,05,07,2.70
2019,03,18,05,08,2.70
2019,03,18,05,09,2.70
2019,03,18,05,10,2.70
2019,03,18,05,11,2.70
2019,03,18,05,12,2.60
2019,03,18,05,13,2.60
2019,03,18,05,14,2.60
2019,03,18,05,15,2.60
2019,03,18,05,16,2.60
2019,03,18,05,17,2.60
2019,03,18,05,18,2.60
2019,03,18,05,19,2.60
2019,03,18,05,20,2.60
2019,03,18,05,21,2.60
2019,03,18,05,22,2.60
2019,03,18,05,23,2.60
2019,03,18,05,24,2.60
2019,03,18,05,25,2.60
2019,03,18,05,26,2.60
2019,03,18,05,27,2.60
2019,03,18,05,28,2.60
2019,03,18,05,29,2.50
2019,03,18,05,30,2.50
2019,03,18,05,31,2.50
2019,03,18,05,32,2.50
2019,03,18,05,33,2.50
2019,03,18,05,34,2.50
2019,03,18,05,35,2.50
2019,03,18,05,36,2.40
2019,03,18,05,37,2.40
2019,03,18,05,38,2.40
2019,03,18,05,39,2.40
2019,03,18,05,40,2.40
2019,03,18,05,41,2.40
2019,03,18,05,42,2.40
2019,03,18,05,43,2.40
2019,03,18,05,44,2.40
2019,03,18,05,45,2.40
2019,03,18,05,46,2.30
2019,03,18,05,47,2.30
2019,03,18,05,48,2.30
2019,03,18,05,49,2.30
2019,03,18,05,50,2.30
2019,03,18,05,51,2.30
2019,03,18,05,52,2.30
2019,03,18,05,53,2.30
2019,03,18,05,54,2.30
2019,03,18,05,55,2.30
2019,03,18,05,56,2.30
2019,03,18,05,57,2.20
2019,03,18,05,58,2.20
2019,03,18,05,59,2.20
2019,03,18,06,00,2.20
2019,03,18,06,01,2.20
2019,03,18,06,02,2.20
2019,03,18,06,03,2.20
2019,03,18,06,04,2.20
2019,03,18,06,05,2.20
2019,03,18,06,06,2.10
2019,03,18,06,07,2.10
2019,03,18,06,08,2.10
2019,03,18,06,09,2.00
2019,03,18,06,10,2.00
2019,03,18,06,11,2.00
2019,03,18,06,12,2.00
2019,03,18,06,13,2.00
2019,03,18,06,14,2.00
2019,03,18,06,15,2.00
2019,03,18,06,16,2.00
2019,03,18,06,17,2.00
2019,03,18,06,18,2.00
2019,03,18,06,19,1.90
2019,03,18,06,20,1.90
2019,03,18,06,21,1.90
2019,03,18,06,22,1.90
2019,03,18,06,23,1.90
2019,03,18,06,24,1.90
2019,03,18,06,25,1.90
2019,03,18,06,26,1.90
2019,03,18,06,27,1.90
2019,03,18,06,28,1.90
2019,03,18,06,29,1.90
2019,03,18,06,30,1.90
2019,03,18,06,31,1.90
2019,03,18,06,32,1.90
2019,03,18,06,33,1.90
2019,03,18,06,34,1.90
2019,03,18,06,35,1.90
2019,03,18,06,36,1.90
2019,03,18,06,37,2.00
2019,03,18,06,38,2.00
2019,03,18,06,39,2.00
2019,03,18,06,40,2.00
2019,03,18,06,41,1.90
2019,03,18,06,42,1.90
2019,03,18,06,43,1.90
2019,03,18,06,44,2.00
2019,03,18,06,45,1.90
2019,03,18,06,46,1.90
2019,03,18,06,47,1.90
2019,03,18,06,48,1.90
2019,03,18,06,49,1.90
2019,03,18,06,50,1.90
2019,03,18,06,51,1.90
2019,03,18,06,52,1.90
2019,03,18,06,53,1.90
2019,03,18,06,54,1.90
2019,03,18,06,55,1.90
2019,03,18,06,56,1.90
2019,03,18,06,57,1.90
2019,03,18,06,58,1.90
2019,03,18,06,59,1.90
2019,03,18,07,00,1.90
2019,03,18,07,01,1.90
2019,03,18,07,02,1.90
2019,03,18,07,03,1.90
2019,03,18,07,04,1.90
2019,03,18,07,05,1.90
2019,03,18,07,06,1.90
2019,03,18,07,07,1.90
2019,03,18,07,08,1.90
2019,03,18,07,09,1.90
2019,03,18,07,10,1.90
2019,03,18,07,11,1.90
2019,03,18,07,12,1.90
2019,03,18,07,13,1.90
2019,03,18,07,14,1.90
2019,03,18,07,15,1.90
2019,03,18,07,16,1.90
2019,03,18,07,17,1.90
2019,03,18,07,18,1.90
2019,03,18,07,19,1.80
2019,03,18,07,20,1.80
2019,03,18,07,21,1.80
2019,03,18,07,22,1.80
2019,03,18,07,23,1.80
2019,03,18,07,24,1.80
2019,03,18,07,25,1.80
2019,03,18,07,26,1.80
2019,03,18,07,27,1.80
2019,03,18,07,28,1.80
2019,03,18,07,29,1.80
2019,03,18,07,30,1.80
2019,03,18,07,31,1.80
2019,03,18,07,32,1.80
2019,03,18,07,33,1.70
2019,03,18,07,34,1.70
2019,03,18,07,35,1.70
2019,03,18,07,36,1.70
2019,03,18,07,37,1.70
2019,03,18,07,38,1.70
2019,03,18,07,39,1.70
2019,03,18,07,40,1.70
2019,03,18,07,41,1.70
2019,03,18,07,42,1.70
2019,03,18,07,43,1.70
2019,03,18,07,44,1.70
2019,03,18,07,45,1.70
2019,03,18,07,46,1.70
2019,03,18,07,47,1.70
2019,03,18,07,48,1.70
2019,03,18,07,49,1.70
2019,03,18,07,50,1.70
2019,03,18,07,51,1.70
2019,03,18,07,52,1.70
2019,03,18,07,53,1.70
2019,03,18,07,54,1.70
2019,03,18,07,55,1.70
2019,03,18,07,56,1.70
2019,03,18,07,57,1.80
2019,03,18,07,58,1.80
2019,03,18,07,59,1.80
2019,03,18,08,00,1.80
2019,03,18,08,01,1.80
2019,03,18,08,02,1.80
2019,03,18,08,03,1.80
2019,03,18,08,04,1.80
2019,03,18,08,05,1.80
2019,03,18,08,06,1.80
2019,03,18,08,07,1.90
2019,03,18,08,08,1.90
2019,03,18,08,09,1.90
2019,03,18,08,10,1.90
2019,03,18,08,11,1.90
2019,03,18,08,12,1.90
2019,03,18,08,13,1.90
2019,03,18,08,14,1.90
2019,03,18,08,15,1.90
2019,03,18,08,16,1.90
2019,03,18,08,17,1.90
2019,03,18,08,18,1.90
2019,03,18,08,19,1.90
2019,03,18,08,20,2.00
2019,03,18,08,21,2.00
2019,03,18,08,22,2.00
2019,03,18,08,23,2.10
2019,03,18,08,24,2.10
2019,03,18,08,25,2.10
2019,03,18,08,26,2.10
2019,03,18,08,27,2.10
2019,03,18,08,28,2.20
2019,03,18,08,29,2.20
2019,03,18,08,30,2.20
2019,03,18,08,31,2.20
2019,03,18,08,32,2.30
2019,03,18,08,33,2.30
2019,03,18,08,34,2.30
2019,03,18,08,35,2.40
2019,03,18,08,36,2.40
2019,03,18,08,37,2.40
2019,03,18,08,38,2.40
2019,03,18,08,39,2.40
2019,03,18,08,40,2.50
2019,03,18,08,41,2.50
2019,03,18,08,42,2.50
2019,03,18,08,43,2.50
2019,03,18,08,44,2.60
2019,03,18,08,45,2.60
2019,03,18,08,46,2.60
2019,03,18,08,47,2.60
2019,03,18,08,48,2.60
2019,03,18,08,49,2.70
2019,03,18,08,50,2.70
2019,03,18,08,51,2.70
2019,03,18,08,52,2.70
2019,03,18,08,53,2.80
2019,03,18,08,54,2.80
2019,03,18,08,55,2.90
2019,03,18,08,56,2.90
2019,03,18,08,57,3.00
2019,03,18,08,58,3.00
2019,03,18,08,59,3.00
2019,03,18,09,00,3.10
2019,03,18,09,01,3.10
2019,03,18,09,02,3.10
2019,03,18,09,03,3.20
2019,03,18,09,04,3.20
2019,03,18,09,05,3.20
2019,03,18,09,06,3.30
2019,03,18,09,07,3.30
2019,03,18,09,08,3.30
2019,03,18,09,09,3.40
2019,03,18,09,10,3.50
2019,03,18,09,11,3.50
2019,03,18,09,12,3.60
2019,03,18,09,13,3.60
2019,03,18,09,14,3.70
2019,03,18,09,15,3.70
2019,03,18,09,16,3.80
2019,03,18,09,17,3.80
2019,03,18,09,18,3.90
2019,03,18,09,19,3.90
2019,03,18,09,20,4.00
2019,03,18,09,21,4.10
2019,03,18,09,22,4.20
2019,03,18,09,23,4.20
2019,03,18,09,24,4.30
2019,03,18,09,25,4.40
2019,03,18,09,26,4.50
2019,03,18,09,27,4.60
2019,03,18,09,28,4.60
2019,03,18,09,29,4.70
2019,03,18,09,30,4.80
2019,03,18,09,31,4.80
2019,03,18,09,32,4.90
2019,03,18,09,33,4.90
2019,03,18,09,34,5.00
2019,03,18,09,35,5.10
2019,03,18,09,36,5.10
2019,03,18,09,37,5.20
2019,03,18,09,38,5.30
2019,03,18,09,39,5.30
2019,03,18,09,40,5.40
2019,03,18,09,41,5.50
2019,03,18,09,42,5.60
2019,03,18,09,43,5.70
2019,03,18,09,44,5.80
2019,03,18,09,45,5.90
2019,03,18,09,46,5.90
2019,03,18,09,47,6.10
2019,03,18,09,48,6.20
2019,03,18,09,49,6.30
2019,03,18,09,50,6.50
2019,03,18,09,51,6.70
2019,03,18,09,52,6.90
2019,03,18,09,53,7.10
2019,03,18,09,54,7.30
2019,03,18,09,55,7.40
2019,03,18,09,56,7.50
2019,03,18,09,57,7.60
2019,03,18,09,58,7.70
2019,03,18,09,59,7.80
2019,03,18,10,00,7.80
2019,03,18,10,01,7.90
2019,03,18,10,02,7.90
2019,03,18,10,03,8.00
2019,03,18,10,04,8.10
2019,03,18,10,05,8.20
2019,03,18,10,06,8.40
2019,03,18,10,07,8.50
2019,03,18,10,08,8.70
2019,03,18,10,09,8.80
2019,03,18,10,10,9.00
2019,03,18,10,11,9.20
2019,03,18,10,12,9.30
2019,03,18,10,13,9.50
2019,03,18,10,14,9.60
2019,03,18,10,15,9.80
2019,03,18,10,16,9.90
2019,03,18,10,17,10.00
2019,03,18,10,18,10.10
2019,03,18,10,19,10.30
2019,03,18,10,20,10.40
2019,03,18,10,21,10.50
2019,03,18,10,22,10.60
2019,03,18,10,23,10.70
2019,03,18,10,24,10.80
2019,03,18,10,25,10.90
2019,03,18,10,26,11.00
2019,03,18,10,27,11.10
2019,03,18,10,28,11.20
2019,03,18,10,29,11.30
2019,03,18,10,30,11.50
2019,03,18,10,31,11.60
2019,03,18,10,32,11.60
2019,03,18,10,33,11.70
2019,03,18,10,34,11.70
2019,03,18,10,35,11.80
2019,03,18,10,36,11.80
2019,03,18,10,37,11.80
2019,03,18,10,38,11.80
2019,03,18,10,39,11.80
2019,03,18,10,40,11.80
2019,03,18,10,41,11.80
2019,03,18,10,42,11.70
2019,03,18,10,43,11.70
2019,03,18,10,44,11.70
2019,03,18,10,45,11.60
2019,03,18,10,46,11.70
2019,03,18,10,47,11.70
2019,03,18,10,48,11.70
2019,03,18,10,49,11.70
2019,03,18,10,50,11.70
2019,03,18,10,51,11.70
2019,03,18,10,52,11.70
2019,03,18,10,53,11.70
2019,03,18,10,54,11.80
2019,03,18,10,55,11.80
2019,03,18,10,56,11.80
2019,03,18,10,57,11.80
2019,03,18,10,58,11.80
2019,03,18,10,59,11.80
2019,03,18,11,00,11.80
2019,03,18,11,01,11.90
2019,03,18,11,02,11.90
2019,03,18,11,03,11.90
2019,03,18,11,04,12.00
2019,03,18,11,05,12.00
2019,03,18,11,06,12.00
2019,03,18,11,07,12.10
2019,03,18,11,08,12.10
2019,03,18,11,09,12.20
2019,03,18,11,10,12.30
2019,03,18,11,11,12.30
2019,03,18,11,12,12.40
2019,03,18,11,13,12.40
2019,03,18,11,14,12.40
2019,03,18,11,15,12.50
2019,03,18,11,16,12.50
2019,03,18,11,17,12.50
2019,03,18,11,18,12.50
2019,03,18,11,19,12.60
2019,03,18,11,20,12.60
2019,03,18,11,21,12.70
2019,03,18,11,22,12.70
2019,03,18,11,23,12.80
2019,03,18,11,24,12.80
2019,03,18,11,25,12.80
2019,03,18,11,26,12.90
2019,03,18,11,27,12.80
2019,03,18,11,28,12.80
2019,03,18,11,29,12.80
2019,03,18,11,30,12.70
2019,03,18,11,31,12.70
2019,03,18,11,32,12.70
2019,03,18,11,33,12.70
2019,03,18,11,34,12.70
2019,03,18,11,35,12.70
2019,03,18,11,36,12.80
2019,03,18,11,37,12.80
2019,03,18,11,38,12.80
2019,03,18,11,39,12.90
2019,03,18,11,40,13.00
2019,03,18,11,41,13.00
2019,03,18,11,42,13.10
2019,03,18,11,43,13.10
2019,03,18,11,44,13.10
2019,03,18,11,45,13.00
2019,03,18,11,46,12.90
2019,03,18,11,47,12.90
2019,03,18,11,48,12.90
2019,03,18,11,49,12.90
2019,03,18,11,50,12.90
2019,03,18,11,51,13.00
2019,03,18,11,52,13.00
2019,03,18,11,53,12.90
2019,03,18,11,54,12.80
2019,03,18,11,55,12.80
2019,03,18,11,56,12.80
2019,03,18,11,57,12.80
2019,03,18,11,58,12.80
2019,03,18,11,59,12.80
2019,03,18,12,00,12.80
2019,03,18,12,01,12.80
2019,03,18,12,02,12.80
2019,03,18,12,03,12.80
2019,03,18,12,04,12.80
2019,03,18,12,05,12.80
2019,03,18,12,06,12.90
2019,03,18,12,07,12.90
2019,03,18,12,08,12.90
2019,03,18,12,09,12.90
2019,03,18,12,10,13.00
2019,03,18,12,11,13.00
2019,03,18,12,12,13.10
2019,03,18,12,13,13.10
2019,03,18,12,14,13.10
2019,03,18,12,15,13.20
2019,03,18,12,16,13.20
2019,03,18,12,17,13.30
2019,03,18,12,18,13.30
2019,03,18,12,19,13.40
2019,03,18,12,20,13.50
2019,03,18,12,21,13.60
2019,03,18,12,22,13.60
2019,03,18,12,23,13.70
2019,03,18,12,24,13.70
2019,03,18,12,25,13.80
2019,03,18,12,26,13.90
2019,03,18,12,27,13.90
2019,03,18,12,28,14.00
2019,03,18,12,29,14.10
2019,03,18,12,30,14.20
2019,03,18,12,31,14.30
2019,03,18,12,32,14.30
2019,03,18,12,33,14.30
2019,03,18,12,34,14.40
2019,03,18,12,35,14.30
2019,03,18,12,36,14.30
2019,03,18,12,37,14.30
2019,03,18,12,38,14.30
2019,03,18,12,39,14.30
2019,03,18,12,40,14.30
2019,03,18,12,41,14.40
2019,03,18,12,42,14.40
2019,03,18,12,43,14.40
2019,03,18,12,44,14.30
2019,03,18,12,45,14.30
2019,03,18,12,46,14.20
2019,03,18,12,47,14.10
2019,03,18,12,48,14.10
2019,03,18,12,49,14.10
2019,03,18,12,50,14.10
2019,03,18,12,51,14.10
2019,03,18,12,52,14.20
2019,03,18,12,53,14.30
2019,03,18,12,54,14.40
2019,03,18,12,55,14.50
2019,03,18,12,56,14.60
2019,03,18,12,57,14.60
2019,03,18,12,58,14.60
2019,03,18,12,59,14.60
2019,03,18,13,00,14.60
2019,03,18,13,01,14.60
2019,03,18,13,02,14.60
2019,03,18,13,03,14.60
2019,03,18,13,04,14.60
2019,03,18,13,05,14.50
2019,03,18,13,06,14.40
2019,03,18,13,07,14.30
2019,03,18,13,08,14.30
2019,03,18,13,09,14.30
2019,03,18,13,10,14.30
2019,03,18,13,11,14.30
2019,03,18,13,12,14.30
2019,03,18,13,13,14.30
2019,03,18,13,14,14.30
2019,03,18,13,15,14.30
2019,03,18,13,16,14.40
2019,03,18,13,17,14.40
2019,03,18,13,18,14.50
2019,03,18,13,19,14.40
2019,03,18,13,20,14.40
2019,03,18,13,21,14.30
2019,03,18,13,22,14.30
2019,03,18,13,23,14.30
2019,03,18,13,24,14.30
2019,03,18,13,25,14.30
2019,03,18,13,26,14.30
2019,03,18,13,27,14.30
2019,03,18,13,28,14.30
2019,03,18,13,29,14.30
2019,03,18,13,30,14.40
2019,03,18,13,31,14.50
2019,03,18,13,32,14.60
2019,03,18,13,33,14.60
2019,03,18,13,34,14.70
2019,03,18,13,35,14.80
2019,03,18,13,36,14.80
2019,03,18,13,37,14.80
2019,03,18,13,38,14.90
2019,03,18,13,39,14.90
2019,03,18,13,40,14.90
2019,03,18,13,41,14.90
2019,03,18,13,42,14.80
2019,03,18,13,43,14.80
2019,03,18,13,44,14.80
2019,03,18,13,45,14.80
2019,03,18,13,46,14.80
2019,03,18,13,47,14.90
2019,03,18,13,48,14.90
2019,03,18,13,49,15.00
2019,03,18,13,50,15.00
2019,03,18,13,51,15.10
2019,03,18,13,52,15.10
2019,03,18,13,53,15.20
2019,03,18,13,54,15.30
2019,03,18,13,55,15.30
2019,03,18,13,56,15.30
2019,03,18,13,57,15.30
2019,03,18,13,58,15.30
2019,03,18,13,59,15.20
2019,03,18,14,00,15.20
2019,03,18,14,01,15.20
2019,03,18,14,02,15.20
2019,03,18,14,03,15.10
2019,03,18,14,04,15.10
2019,03,18,14,05,15.00
2019,03,18,14,06,15.00
2019,03,18,14,07,14.90
2019,03,18,14,08,14.90
2019,03,18,14,09,15.00
2019,03,18,14,10,15.00
2019,03,18,14,11,15.10
2019,03,18,14,12,15.10
2019,03,18,14,13,15.20
2019,03,18,14,14,15.20
2019,03,18,14,15,15.20
2019,03,18,14,16,15.20
2019,03,18,14,17,15.30
2019,03,18,14,18,15.40
2019,03,18,14,19,15.40
2019,03,18,14,20,15.40
2019,03,18,14,21,15.40
2019,03,18,14,22,15.50
2019,03,18,14,23,15.60
2019,03,18,14,24,15.60
2019,03,18,14,25,15.70
2019,03,18,14,26,15.70
2019,03,18,14,27,15.70
2019,03,18,14,28,15.70
2019,03,18,14,29,15.70
2019,03,18,14,30,15.70
2019,03,18,14,31,15.70
2019,03,18,14,32,15.70
2019,03,18,14,33,15.80
2019,03,18,14,34,15.80
2019,03,18,14,35,15.80
2019,03,18,14,36,15.80
2019,03,18,14,37,15.80
2019,03,18,14,38,15.80
2019,03,18,14,39,15.90
2019,03,18,14,40,16.00
2019,03,18,14,41,16.00
2019,03,18,14,42,16.00
2019,03,18,14,43,16.10
2019,03,18,14,44,16.00
2019,03,18,14,45,16.00
2019,03,18,14,46,15.90
2019,03,18,14,47,15.90
2019,03,18,14,48,15.80
2019,03,18,14,49,15.80
2019,03,18,14,50,15.70
2019,03,18,14,51,15.60
2019,03,18,14,52,15.50
2019,03,18,14,53,15.50
2019,03,18,14,54,15.40
2019,03,18,14,55,15.40
2019,03,18,14,56,15.50
2019,03,18,14,57,15.60
2019,03,18,14,58,15.70
2019,03,18,14,59,15.80
2019,03,18,15,00,15.80
2019,03,18,15,01,15.80
2019,03,18,15,02,15.80
2019,03,18,15,03,15.90
2019,03,18,15,04,16.00
2019,03,18,15,05,16.00
2019,03,18,15,06,16.00
2019,03,18,15,07,16.00
2019,03,18,15,08,16.00
2019,03,18,15,09,16.10
2019,03,18,15,10,16.10
2019,03,18,15,11,16.10
2019,03,18,15,12,16.10
2019,03,18,15,13,16.10
2019,03,18,15,14,16.10
2019,03,18,15,15,16.10
2019,03,18,15,16,16.20
2019,03,18,15,17,16.10
2019,03,18,15,18,16.20
2019,03,18,15,19,16.30
2019,03,18,15,20,16.40
2019,03,18,15,21,16.50
2019,03,18,15,22,16.50
2019,03,18,15,23,16.60
2019,03,18,15,24,16.60
2019,03,18,15,25,16.60
2019,03,18,15,26,16.60
2019,03,18,15,27,16.50
2019,03,18,15,28,16.50
2019,03,18,15,29,16.40
2019,03,18,15,30,16.40
2019,03,18,15,31,16.50
2019,03,18,15,32,16.50
2019,03,18,15,33,16.60
2019,03,18,15,34,16.60
2019,03,18,15,35,16.70
2019,03,18,15,36,16.70
2019,03,18,15,37,16.70
2019,03,18,15,38,16.70
2019,03,18,15,39,16.70
2019,03,18,15,40,16.80
2019,03,18,15,41,16.80
2019,03,18,15,42,16.80
2019,03,18,15,43,16.80
2019,03,18,15,44,16.80
2019,03,18,15,45,16.70
2019,03,18,15,46,16.70
2019,03,18,15,47,16.60
2019,03,18,15,48,16.50
2019,03,18,15,49,16.40
2019,03,18,15,50,16.40
2019,03,18,15,51,16.50
2019,03,18,15,52,16.50
2019,03,18,15,53,16.50
2019,03,18,15,54,16.50
2019,03,18,15,55,16.50
2019,03,18,15,56,16.50
2019,03,18,15,57,16.50
2019,03,18,15,58,16.50
2019,03,18,15,59,16.50
2019,03,18,16,00,16.50
2019,03,18,16,01,16.50
2019,03,18,16,02,16.60
2019,03,18,16,03,16.60
2019,03,18,16,04,16.60
2019,03,18,16,05,16.60
2019,03,18,16,06,16.60
2019,03,18,16,07,16.50
2019,03,18,16,08,16.50
2019,03,18,16,09,16.50
2019,03,18,16,10,16.40
2019,03,18,16,11,16.40
2019,03,18,16,12,16.30
2019,03,18,16,13,16.30
2019,03,18,16,14,16.30
2019,03,18,16,15,16.30
2019,03,18,16,16,16.40
2019,03,18,16,17,16.40
2019,03,18,16,18,16.30
2019,03,18,16,19,16.30
2019,03,18,16,20,16.30
2019,03,18,16,21,16.30
2019,03,18,16,22,16.30
2019,03,18,16,23,16.30
2019,03,18,16,24,16.30
2019,03,18,16,25,16.30
2019,03,18,16,26,16.30
2019,03,18,16,27,16.30
2019,03,18,16,28,16.30
2019,03,18,16,29,16.30
2019,03,18,16,30,16.30
2019,03,18,16,31,16.30
2019,03,18,16,32,16.30
2019,03,18,16,33,16.30
2019,03,18,16,34,16.30
2019,03,18,16,35,16.40
2019,03,18,16,36,16.40
2019,03,18,16,37,16.50
2019,03,18,16,38,16.50
2019,03,18,16,39,16.50
2019,03,18,16,40,16.50
2019,03,18,16,41,16.60
2019,03,18,16,42,16.60
2019,03,18,16,43,16.60
2019,03,18,16,44,16.60
2019,03,18,16,45,16.60
2019,03,18,16,46,16.60
2019,03,18,16,47,16.60
2019,03,18,16,48,16.50
2019,03,18,16,49,16.50
2019,03,18,16,50,16.50
2019,03,18,16,51,16.50
2019,03,18,16,52,16.60
2019,03,18,16,53,16.60
2019,03,18,16,54,16.60
2019,03,18,16,55,16.70
2019,03,18,16,56,16.80
2019,03,18,16,57,16.70
2019,03,18,16,58,16.80
2019,03,18,16,59,16.80
2019,03,18,17,00,16.80
2019,03,18,17,01,16.80
2019,03,18,17,02,16.80
2019,03,18,17,03,16.80
2019,03,18,17,04,16.70
2019,03,18,17,05,16.70
2019,03,18,17,06,16.70
2019,03,18,17,07,16.60
2019,03,18,17,08,16.60
2019,03,18,17,09,16.60
2019,03,18,17,10,16.60
2019,03,18,17,11,16.60
2019,03,18,17,12,16.60
2019,03,18,17,13,16.60
2019,03,18,17,14,16.60
2019,03,18,17,15,16.70
2019,03,18,17,16,16.60
2019,03,18,17,17,16.70
2019,03,18,17,18,16.70
2019,03,18,17,19,16.70
2019,03,18,17,20,16.70
2019,03,18,17,21,16.70
2019,03,18,17,22,16.70
2019,03,18,17,23,16.70
2019,03,18,17,24,16.70
2019,03,18,17,25,16.70
2019,03,18,17,26,16.70
2019,03,18,17,27,16.80
2019,03,18,17,28,16.70
2019,03,18,17,29,16.80
2019,03,18,17,30,16.80
2019,03,18,17,31,16.80
2019,03,18,17,32,16.80
2019,03,18,17,33,16.80
2019,03,18,17,34,16.80
2019,03,18,17,35,16.80
2019,03,18,17,36,16.80
2019,03,18,17,37,16.80
2019,03,18,17,38,16.80
2019,03,18,17,39,16.80
2019,03,18,17,40,16.90
2019,03,18,17,41,16.90
2019,03,18,17,42,16.90
2019,03,18,17,43,16.90
2019,03,18,17,44,16.90
2019,03,18,17,45,16.90
2019,03,18,17,46,16.90